Location: Newark
(7.0858°N, 171.3717°E)
Time: 06:44:08
(UTC+00:00)

deb Explorer IX - All Passes

Search period start: 27 November 2020 00:00
Search period end: 07 December 2020 00:00
Orbit: 538 x 1104 km, 38.8° (Epoch: 26 November)

Date Brightness Start Highest point End Pass type
(mag) Time Alt. Az. Time Alt. Az. Time Alt. Az.
27 Nov - 01:42:47 10° SSW 01:49:27 39° SE 01:55:34 10° ENE daylight
27 Nov - 03:30:09 10° WSW 03:36:43 43° NW 03:42:32 10° NNE daylight
27 Nov - 12:36:52 10° NNW 12:40:28 31° NE 12:44:10 10° ESE night (unlit)
27 Nov - 14:23:49 10° W 14:27:05 22° SW 14:30:34 10° SSE night (unlit)
28 Nov - 01:19:16 10° SSW 01:26:01 40° SE 01:32:17 10° ENE daylight
28 Nov - 03:06:38 10° WSW 03:13:19 44° NW 03:19:17 10° NNE daylight
28 Nov - 12:13:40 10° NNW 12:17:16 31° NE 12:20:56 10° ESE night (unlit)
28 Nov - 14:00:43 10° W 14:03:53 21° SW 14:07:12 10° S night (unlit)
29 Nov - 00:55:46 10° SSW 01:02:33 40° SE 01:08:57 10° ENE daylight
29 Nov - 02:43:07 10° WSW 02:49:53 44° NW 02:56:01 10° NNE daylight
29 Nov - 11:50:26 10° NNW 11:54:05 31° NE 11:57:43 10° ESE night (unlit)
29 Nov - 13:37:36 10° W 13:40:40 20° SW 13:43:51 10° S night (unlit)
30 Nov - 00:32:17 10° SSW 00:39:06 41° SE 00:45:37 10° ENE daylight
30 Nov - 02:19:36 10° WSW 02:26:28 44° NW 02:32:44 10° NNE daylight
30 Nov - 11:27:10 10° NNW 11:30:53 32° NE 11:34:31 10° ESE night (unlit)
30 Nov - 13:14:28 10° W 13:17:27 20° SW 13:20:32 10° S night (unlit)
01 Dec - 00:08:49 10° SSW 00:15:37 41° SE 00:22:15 10° ENE daylight
01 Dec - 01:56:06 10° WSW 02:03:00 44° NW 02:09:25 10° NNE daylight
01 Dec - 11:03:53 10° NNW 11:07:41 33° NE 11:11:20 10° ESE night (unlit)
01 Dec - 12:51:18 10° W 12:54:14 19° SW 12:57:14 10° S night (unlit)
01 Dec - 23:45:21 10° SSW 23:52:08 42° SE 23:58:51 10° ENE daylight
02 Dec - 01:32:37 10° WSW 01:39:32 44° NW 01:46:04 10° NNE daylight
02 Dec - 10:40:35 10° NNW 10:44:29 34° NE 10:48:10 10° ESE night (unlit)
02 Dec - 12:28:07 10° W 12:31:01 19° SW 12:33:57 10° S night (unlit)
02 Dec - 23:21:55 10° SSW 23:28:40 42° SE 23:35:26 10° ENE daylight
03 Dec - 01:09:07 10° WSW 01:16:03 44° NW 01:22:42 10° NNE daylight
03 Dec - 10:17:14 10° NNW 10:21:16 35° NE 10:25:00 10° ESE night (unlit)
03 Dec - 12:04:53 10° W 12:07:48 19° SW 12:10:41 10° S night (unlit)
03 Dec - 22:58:29 10° SSW 23:05:10 42° SE 23:11:58 10° ENE daylight
04 Dec - 00:45:40 10° WSW 00:52:34 44° NW 00:59:17 10° NNE daylight
04 Dec - 09:53:52 10° NNW 09:58:02 36° NE 10:01:51 10° ESE night (unlit)
04 Dec - 11:41:38 10° W 11:44:34 19° SW 11:47:26 10° S night (unlit)
04 Dec - 22:35:05 10° SSW 22:41:40 42° SE 22:48:31 10° ENE daylight
05 Dec - 00:22:12 10° WSW 00:29:04 44° NW 00:35:52 10° NNE daylight
05 Dec - 02:16:28 10° NW 02:17:14 10° NNW 02:18:00 10° NNW daylight
05 Dec - 09:30:28 10° NNW 09:34:48 37° NE 09:38:42 10° ESE night (unlit)
05 Dec - 11:18:21 10° W 11:21:20 19° SW 11:24:13 10° S night (unlit)
05 Dec - 22:11:42 10° SSW 22:18:11 42° SE 22:25:01 10° ENE daylight
05 Dec - 23:58:46 10° WSW 00:05:34 44° NW 00:12:25 10° NNE daylight
06 Dec - 01:52:43 10° NW 01:53:48 10° NNW 01:54:52 10° NNW daylight
06 Dec - 09:07:02 10° NNW 09:11:34 39° NE 09:15:33 10° ESE night (unlit)
06 Dec - 10:55:02 10° W 10:58:05 19° SW 11:01:01 10° S night (unlit)
06 Dec - 21:48:19 10° SSW 21:54:41 42° SE 22:01:30 10° ENE daylight
06 Dec - 23:35:21 10° WSW 23:42:04 43° NW 23:48:57 10° NNE daylight
